STARLINK-5950, 56913

Orbit data source: Space-Track

STARLINK-5950, 56913 is a payload satellite owned by SpaceX/Seattle (US) in LEO that was launched on Mon, 12 Jun 2023 UTC via an FALCON 9 launch vehicle from the Air Force Eastern Test Range (AFETR). Payload-class satellites include a variety of spacecraft equipped with specific instruments for various scientific and technological missions. These include communications satellites like Starlink; space stations such as the ISS; scientific satellites like the Hubble; Earth observation satellites from companies like Planet Labs, Umbra, and HawkEye 360; GPS; miniature CubeSats for education and research; and military/defense satellites.

Loading next visibility...
Identifier
56913, 2023-083AP
Orbit
LEO
Country
Flag of USUS
Related business
Manufacturer
SpaceX/Seattle
Mission
Operational Commercial Communications
Bus & Motor
STARLINK, Unknown motor
Mass
305 kg wet, ~290 kg dry
Launch date (UTC)
2023-06-12 (3 years ago)
Launch vehicle
FALCON 9
Launch site
Air Force Eastern Test Range (AFETR)
Object type
Payload
Rocket body
Debris
Shape & HBR
Box + 1 Pan, 10.1 m
Radar Cross Section
11.087 m², Large (>1 m²)

Expand to show TLE details & history
Last TLE update: 2 days ago

TLE from 2 days ago
0 STARLINK-5950
1 56913U 23083AP  26171.17540528  .00000496  00000-0  27568-4 0  9990
2 56913  43.0017 211.7569 0001768 270.9836  89.0813 15.27578878167471
Epoch: 2026-06-20T04:12Z
TLE epoch observation values (Epoch: 2026-06-20T04:12:35.016Z)
Latitude
-0.00001°
Longitude
-119.78281°
Altitude
482.809 km
Speed
7.626 km/s
True Right ascension
14h 07m 01s
True Declination
0° 00' 00"
Sunlit
Object was in full shadow at epoch
Visualization orbit readout
Latitude
Unknown
Longitude
Unknown
Altitude
Unknown
Speed
Unknown
Apparent Right ascension
Unknown
Apparent Declination
Unknown
Sunlit
N/A
Visualization observer readout
Local Sidereal Time
21:32:04
Azimuth
Unknown
Elevation
Unknown
Doppler factor
Unknown
Orbital elements
Apogee altitude
486.211 km
Perigee altitude
483.784 km
Semi-major axis
6,863.134 km
Eccentricity
0.00018
Inclination
43.0017°
RAAN
211.7569°
Arg. of periapsis
270.9836°
True anomaly
89.10156°
Mean anomaly
89.0813°
Eccentric anomaly
89.09143°
Mean motion
3.81733 °/min
Orbital period
94.31 mins
BSTAR
0.000027568
Loading maneuver chart data...
Computing Atmospheric mass density...
Loading historical data...
Loading historical data...
Loading historical data...
Loading historical data...
Loading historical data...
Loading historical data...
Loading historical data...

Documentation

Showing up to 5 results
|